Location: Misciano
(43.5000°N, 11.9500°E)
Time: 06:27:50
(UTC+00:00)

Iridium 4 Rocket - Pass Details

Date: 13 August 2020
Orbit: 586 x 903 km, 86.9° (Epoch: 23 September)

Event Time Altitude Azimuth Distance (km) Brightness Sun altitude
Exits shadow 20:25:26 24° 69° (ENE) 1,274 4.4 -20.2°
Drops below altitude 10° 20:28:12 10° 29° (NNE) 1,928 5.8 -20.5°
Sets 20:30:39 0° 16° (NNE) 2,825 6.9 -20.8°
